Tracking 20382 objects as of 24-Feb-2020
HD Live streaming from Space Station
objects crossing your sky now
Track the group of recently launched Starlink satellites

OPS 7034 (TRANSIT 18)

Track OPS 7034 (TRANSIT 18) now!
10-day predictions
OPS 7034 (TRANSIT 18) is classified as:


NORAD ID: 3133
Int'l Code: 1968-012A
Perigee: 1,019.3 km
Apogee: 1,131.7 km
Inclination: 90.0 °
Period: 106.6 minutes
Semi major axis: 7446 km
RCS: 1.3738 m2 (large)
Launch date: March 2, 1968
Source: United States (US)
Launch site: AIR FORCE WESTERN TEST RANGE (AFWTR)
aabbcc
Your satellite tracking list
Your tracking list is empty




NASA's NSSDC Master Catalog

Two Line Element Set (TLE):
1  3133U 68012A   20055.22736654  .00000055  00000-0  68835-4 0  9998
2  3133  89.9785 272.2606 0075494 184.4610 305.7714 13.51063032559602
Source of the keplerian elements: AFSPC